Regional Weather Roundup
Issued by NWS

Home | Current Version | Previous Version | Graphics & Text | Print | Product List | Glossary On
Versions: 1 2 3 4 5 6 7 8 9 10 11 12 13 14 15 16 17 18 19 20 21 22 23 24 25 26 27 28 29 30 31 32 33 34 35 36 37 38 39 40 41 42 43 44 45 46 47 48 49 50
000
ASUS45 KTFX 011419
RWRMT
MONTANA HOURLY WEATHER ROUNDUP
NATIONAL WEATHER SERVICE GREAT FALLS MT
819 AM MDT WED OCT 1 2014

NOTE: "FAIR" INDICATES FEW OR NO CLOUDS BELOW 12000 FEET WITH NO
SIGNIFICANT WEATHER AND/OR OBSTRUCTIONS TO VISIBILITY.

* THESE STATIONS ARE NOT UNDER NWS QUALITY CONTROL. THEY DO NOT
   REPORT WEATHER SUCH AS PRECIPITATION OR FOG.

MTZ001>007-043-011500-
WEST OF THE DIVIDE
CITY           SKY/WX    TMP DP  RH WIND       PRES   REMARKS
KALISPELL      FOG       37  37 100 CALM      30.02R VSB M1/4
MISSOULA       PTSUNNY   43  39  86 CALM      30.08R
BUTTE          LGT RAIN  37  34  89 W5        30.06R WCI  33
MULLAN PASS    FOG       32  32 100 VRB5      30.06R VSB 1/2  WCI  27
* ESSEX        N/A       41  40  96 N1         N/A
* LINCOLN      N/A       41  36  82 S3G8       N/A
* LOOKOUT PASS N/A       37  36  96 SW2        N/A
* POLSON       N/A       40  36  86 SE1        N/A
* RONAN APT    SUNNY     45  39  80 N/A        N/A
* SEELEY LAKE  N/A       34  33  96 NE1        N/A
* THOMP F APT  SUNNY     36  25  64 N9G22      N/A   WCI  29
* YAAK HILL    N/A       39  37  93 SE1        N/A
$$

MTZ008-052>055-011500-
SOUTHWEST MONTANA
CITY           SKY/WX    TMP DP  RH WIND       PRES   REMARKS
BOZEMAN        CLOUDY    39  37  93 SE6       30.02R WCI  35
DILLON         CLOUDY    36  32  85 CALM      30.03R
W YELLOWSTONE  PTSUNNY   32  32 100 S3        30.03R
* THREE FORKS  PTSUNNY   39  16  39 N/A        N/A
* BOULDER HILL N/A       39  29  67 SW1        N/A
* MONIDA PASS  N/A       32  28  85 NW11       N/A   WCI  23
* RAYNOLDS PAS N/A       30  28  92 NW2G9      N/A
* WHITEHALL    N/A       44  33  65 W7G13      N/A
* WISE RIVER   N/A       37  31  79 SW4        N/A
$$

MTZ009>010-012-014-046-048-049-054-011500-
EAST SLOPES AND CENTRAL MONTANA
CITY           SKY/WX    TMP DP  RH WIND       PRES   REMARKS
CUT BANK       SUNNY     37  34  89 W7        29.94S WCI  32
GREAT FALLS    CLOUDY    43  39  86 SW12      29.96R
HELENA         LGT RAIN  46  37  71 W10       30.01R
MALMSTROM AFB  CLOUDY    45  41  86 SW12      29.98R
* CONRAD       PTCLDY    43  37  79 N/A        N/A
* DEARBORN     N/A       43  41  93 SW4        N/A
* EAST GLACIER N/A       37  35  92 W10G15     N/A   WCI  30
* MONARCH      N/A       37  32  82 SW6        N/A   WCI  32
* PENDROY      N/A       42  32  68 W12        N/A
* ROGERS PASS  N/A       36  33  89 SW2G9      N/A
* SAINT MARY   N/A       40  36  86 S5G11      N/A   WCI  36
* SWEET GRASS  N/A       40  37  89 W11        N/A   WCI  33
$$

MTZ011-013-016-021-035-040-045-047-050-051-011500-
NORTH CENTRAL MONTANA
CITY           SKY/WX    TMP DP  RH WIND       PRES   REMARKS
HAVRE          PTSUNNY   45  39  80 W8        29.90R
LEWISTOWN      CLOUDY    45  39  80 W10       29.94R
* CHINOOK      CLOUDY    45  39  80 W12G18    29.88R
* FORT BENTON  PTSUNNY   46  39  77 SW8       29.96R
* DENTON       N/A       44  39  83 W15        N/A
* JUDITH GAP   N/A       43  36  76 NW12       N/A
* LOMA         N/A       45  41  86 SW5        N/A
$$

MTZ017>020-022>027-061-062-011500-
NORTHEAST MONTANA
CITY           SKY/WX    TMP DP  RH WIND       PRES   REMARKS
GLASGOW        CLOUDY    50  43  77 W16       29.76R
GLENDIVE       CLOUDY    50  45  83 W20       29.78R
JORDAN         PTCLDY    48  43  83 W17       29.83R
SIDNEY         PTSUNNY   52  46  80 W18G24    29.72R
WOLF POINT     CLOUDY    54  46  74 W15       29.73R
* BEAVER HILL  N/A       49  46  89 W22G29     N/A
* CIRCLE       N/A       48  46  93 W7G14      N/A
* LINDSAY DVD  N/A       47  45  93 W24G30     N/A
* NAVAJO       N/A       49  48  96 NW22G27    N/A
$$

MTZ028>042-056>058-011500-
SOUTHCENTRAL AND SOUTHEAST MONTANA
CITY           SKY/WX    TMP DP  RH WIND       PRES   REMARKS
BAKER          CLOUDY    46  45  96 W20G30    29.78R
BILLINGS       CLOUDY    48  34  59 NW13G18   29.94R
LIVINGSTON     CLOUDY    45  34  65 W10       29.98R
MILES CITY     CLOUDY    50  41  71 W18       29.84R
* LAUREL APT   CLOUDY    45  32  60 N/A        N/A
* ROUNDUP APT  PTCLDY    46  36  68 W15G21     N/A
* ALZADA       N/A       48  44  86 W12G18     N/A
* HYSHAM       N/A       44  37  76 W3         N/A
* LAME DEER    N/A       44  39  83 NW12G20    N/A
* REED POINT   N/A       45  29  54 W6G11      N/A
* ROSCOE HILL  N/A       41  20  43 W2         N/A
$$

REGIONAL REPORTS...DAKOTAS
CITY           SKY/WX    TMP DP  RH WIND       PRES   REMARKS
WILLISTON      CLOUDY    54  48  80 W18       29.64R
DICKINSON      CLOUDY    52  48  86 W20       29.69R
BEACH          N/A       48  48 100 W21G31    29.75R
CROSBY         N/A      N/A N/A N/A N/A        N/A
TIOGA          FOG       50  50 100 W21G31    29.61R VSB 3
WATFORD CITY   CLOUDY    50  50 100 W20G29    29.64R
BISMARCK       PTSUNNY   57  50  78 W12       29.65R
GRAND FORKS    CLOUDY    59  54  84 S15G23    29.57R
FARGO          PTSUNNY   61  55  81 S14       29.64S
BUFFALO SD     PTCLDY    50  46  86 W18G26    29.74R
RAPID CITY     PTCLDY    54  46  74 N10       29.81R
$$

REGIONAL REPORTS...WYOMING/IDAHO/WASHINGTON
CITY           SKY/WX    TMP DP  RH WIND       PRES   REMARKS
GILLETTE       CLOUDY    46  43  89 NW13      29.89R
SHERIDAN       CLOUDY    46  39  77 NW12      29.93R
CODY           CLOUDY    45  43  93 CALM      29.96R
YELLOWSTONE LA PTSUNNY   30  27  89 VRB3      30.04R
SALMON         PTSUNNY   43  36  76 CALM      30.10R
MULLAN PASS    FOG       32  32 100 VRB5      30.06S VSB 1/2  WCI  27
SAND POINT     FOG       34  34 100 W5        30.08R VSB 1 1/4 WCI  29
SPOKANE        SUNNY     36  34  92 S10       30.09R WCI  29
$$

REGIONAL REPORTS...ALBERTA
CITY           SKY/WX    TMP DP  RH WIND       PRES   REMARKS
CALGARY        N/A       34  32  92 CALM      29.88S
LETHBRIDGE     SUNNY     39  36  89 SW10      29.91S WCI  32
MEDICINE HAT   SUNNY     37  36  96 W9        29.89R WCI  30
EDMONTON       SUNNY     36  32  85 W5        29.84S WCI  32
WATERTON GATE  N/A       43  36  76 SW13G18    N/A
CARDSTON       N/A       37  36  96 SW8        N/A   WCI  31
MILK RIVER     N/A       37  34  89 NW7        N/A   WCI  32
$$

REGIONAL REPORTS...SASKATCHEWAN
CITY           SKY/WX    TMP DP  RH WIND       PRES   REMARKS
SWIFT CURRENT  CLOUDY    45  43  93 NW20      29.73R
MOOSE JAW      CLOUDY    50  50 100 NW18      29.62R
REGINA         CLOUDY    50  50 100 NW17G24   29.57R
VAL MARIE      N/A       46  43  89 NW14       N/A
ASSINIBOIA     N/A       48  46  93 NW21G26    N/A
CORONACH       N/A       48  46  93 W22G30     N/A

$$




USA.gov is the U.S. government's official web portal to all federal, state and local government web resources and services.